Location: Unspecified
(0.0000°N, 0.0000°E)
Time: 19:49:08
(UTC+00:00)

Courier 1B Rocket - Pass Details

Date: 21 October 2021
Orbit: 920 x 1202 km, 28.2° (Epoch: 06 December)

Event Time Altitude Azimuth Distance (km) Brightness Sun altitude
Exits shadow 02:27:16 14° 153° (SSE) 2,771 7.6 -48.2°
Drops below altitude 10° 02:28:23 10° 148° (SSE) 3,076 7.9 -47.9°
Sets 02:31:41 0° 137° (SE) 4,067 8.8 -47.1°
